Overview Statistics Trail Chart Weather Telemetry Raw packets
 

This is the latest recevied weather packets stored in our database for station/object R2AJV-13. If no packets are shown the sender has not sent any weather packets the latest 10 day(s).

<< 16 17 18 19 20 21 22 >>
Time Temp. Humidity Pressure Rain* Wind** Luminosity Snow
1788029141 10.56° C 99% 1009.2 hPa 0 mm - - -
1788028237 10.56° C 99% 1009.3 hPa 0 mm - - -
1788027329 11.11° C 99% 1009.3 hPa 0 mm - - -
1788026415 11.67° C 99% 1009.2 hPa 0 mm - - -
1788025565 11.67° C 98% 1009.3 hPa 0 mm - - -
1788024660 12.22° C 98% 1009.3 hPa 0 mm - - -
1788023749 12.78° C 97% 1009.2 hPa 0 mm - - -
1788022866 13.33° C 97% 1009.2 hPa 0 mm - - -
1788021962 13.89° C 95% 1009.2 hPa 0 mm - - -
1788021051 14.44° C 93% 1009.1 hPa 0 mm - - -
1788020141 15.56° C 88% 1009.3 hPa 0 mm - - -
1788019230 16.67° C 86% 1009.2 hPa 0 mm - - -
1788018324 17.78° C 78% 1009.3 hPa 0 mm - - -
1788017473 18.89° C 72% 1009.5 hPa 0 mm - - -
1788016563 20° C 66% 1009.4 hPa 0 mm - - -
1788015653 19.44° C 67% 1009.6 hPa 0 mm - - -
1788014753 20° C 66% 1009.7 hPa 0 mm - - -
1788013838 21.11° C 62% 1009.9 hPa 0 mm - - -
1788012926 21.11° C 62% 1009.9 hPa 0 mm - - -
1788012015 21.11° C 62% 1010 hPa 0 mm - - -
1788011166 21.67° C 60% 1010 hPa 0 mm - - -
1788010260 22.78° C 57% 1010 hPa 0 mm - - -
1788009350 21.67° C 59% 1010.1 hPa 0 mm - - -
1788008166 22.78° C 57% 1010.1 hPa 0 mm - - -
1788007257 21.67° C 63% 1010.2 hPa 0 mm - - -

* Rain latest hour (hover to see other rain measurements)
** Current wind speed in m/s (hover to see current wind gust speed)